Location: *
(43.4667°N, 11.6833°E)
Time: 06:37:39
(UTC+00:00)

Cosmos 2228 Rocket - Pass Details

Date: 19 July 2019
Orbit: 619 x 652 km, 82.5° (Epoch: 24 August)

Event Time Altitude Azimuth Distance (km) Brightness Sun altitude
Rises 20:59:33 0° 345° (NNW) 2,965 7.9 -18.2°
Reaches altitude 10° 21:01:51 10° 340° (NNW) 2,054 6.9 -18.4°
Maximum altitude 21:06:14 47° 267° (W) 857 3.9 -18.8°
Enters shadow 21:08:48 23° 204° (SSW) 1,389 4.5 -19.1°
